Home > Weather > Sapporo > Past weeks

Flag for Japan Past Weather in Sapporo, Japan — Yesterday and Last 2 Weeks

Now
48 °F

Partly cloudy.


Feels Like: 48 °F
Forecast: 50 / 60 °F
Wind: 2 mph from North

Location: Chitose Ab

Current Time: Jun 1, 2016 at 1:14:45 AM

Latest Report: Jun 1, 2016 at 12:30 AM


Visibility: N/A

Pressure: 29.45 "Hg

Humidity: 100%

Dew Point: 48 °F

Location of SapporoLocation

Past Weather in Sapporo — Graph

°F

Sapporo Temperature Yesterday

Maximum temperature yesterday: 63 °F (at 4:00 PM)
Minimum temperature yesterday: 50 °F (at 11:30 PM)
Average temperature yesterday: 56 °F

High & Low Weather Summary for the Past Weeks

 TemperatureHumidityPressure
High79 °F (May 23, 12:30 PM)100% (May 17, 12:00 AM)30.24 "Hg (May 17, 12:00 AM)
Low41 °F (May 20, 4:30 AM)20% (May 21, 1:30 PM)29.45 "Hg (May 31, 10:00 PM)
Average58 °F74%29.88 "Hg
* Reported May 17 12:00 AM — Jun 1 12:00 AM, Sapporo, Weather by CustomWeather, © 2016

Note: Actual official high and low records may vary slightly from our data, if they occured in-between our weather recording intervals... More about our weather records

Advertising

Sapporo Weather History for the Previous 24 Hours

Scroll right to see more
 ConditionsComfort  
Time TempWeatherWind HumidityBarometerVisibility
12:00 AM
Wed, Jun 1
52 °FPassing clouds.2 mph100%29.45 "HgN/A
11:30 PM
Tue, May 31
50 °FPartly cloudy.2 mph100%29.45 "HgN/A
11:00 PM52 °FPartly cloudy.3 mph100%29.45 "HgN/A
10:30 PM52 °FPartly cloudy.5 mph100%29.45 "HgN/A
10:00 PM52 °FPassing clouds.6 mph100%29.45 "HgN/A
9:30 PM54 °FPartly cloudy.3 mph100%29.47 "HgN/A
9:00 PM54 °FPassing clouds.6 mph100%29.47 "HgN/A
8:30 PM54 °FPartly cloudy.8 mph100%29.47 "HgN/A
8:00 PM55 °FSprinkles. Partly cloudy.9 mph94%29.47 "HgN/A
7:30 PM54 °FSprinkles. Partly cloudy.13 mph100%29.47 "Hg4 mi
7:00 PM55 °FRain showers. Broken clouds.6 mph94%29.53 "Hg4 mi
6:45 PM55 °FRain showers. Fog.3 mph100%29.53 "Hg3 mi
6:30 PM55 °FThunderstorms. Fog.3 mph100%29.53 "Hg3 mi
6:04 PM55 °FRain showers. Fog.6 mph100%29.53 "Hg3 mi
6:00 PM55 °FThunderstorms. Fog.8 mph100%29.53 "Hg3 mi
5:30 PM55 °FThunderstorms. Fog.17 mph100%29.53 "Hg2 mi
5:00 PM59 °FStrong thunderstorms. Broken clouds.21 mph100%29.50 "Hg3 mi
4:30 PM63 °FSprinkles. Partly sunny.18 mph88%29.47 "HgN/A
4:00 PM63 °FSprinkles. Broken clouds.15 mph88%29.50 "HgN/A
3:30 PM61 °FSprinkles. Broken clouds.15 mph94%29.50 "HgN/A
3:00 PM59 °FSprinkles. Broken clouds.17 mph94%29.53 "HgN/A
2:30 PM61 °FSprinkles. Broken clouds.16 mph94%29.53 "HgN/A
2:00 PM61 °FSprinkles. Partly sunny.22 mph94%29.53 "Hg4 mi
1:30 PM61 °FSprinkles. Partly sunny.21 mph94%29.56 "Hg4 mi
1:00 PM61 °FSprinkles. Partly sunny.20 mph94%29.56 "Hg4 mi
12:30 PM61 °FDrizzle. Partly sunny.21 mph100%29.59 "Hg5 mi
12:00 PM61 °FDrizzle. Partly sunny.21 mph100%29.59 "Hg5 mi
11:30 AM61 °FDrizzle. Fog.20 mph100%29.62 "Hg3 mi
11:00 AM61 °FDrizzle. Fog.20 mph100%29.62 "Hg3 mi
10:30 AM59 °FLight rain. Fog.18 mph100%29.65 "Hg2 mi
10:00 AM59 °FLight rain. Fog.20 mph100%29.65 "Hg2 mi
9:00 AM59 °FDrizzle. Fog.17 mph100%29.65 "Hg2 mi
8:30 AM57 °FDrizzle. Fog.17 mph100%29.65 "Hg1 mi
8:00 AM57 °FDrizzle. Fog.17 mph100%29.68 "Hg1 mi
7:30 AM57 °FDrizzle. Fog.16 mph100%29.68 "Hg1 mi
7:00 AM55 °FDrizzle. Fog.12 mph100%29.68 "Hg1 mi
6:30 AM55 °FDrizzle. Fog.10 mph100%29.71 "Hg1 mi
6:00 AM54 °FDrizzle. Fog.10 mph100%29.71 "Hg1 mi
5:30 AM54 °FDrizzle. Fog.10 mph100%29.71 "Hg1 mi
5:00 AM54 °FDrizzle. Fog.9 mph100%29.71 "Hg1 mi
4:30 AM54 °FDrizzle. Fog.10 mph100%29.71 "Hg1 mi
4:00 AM52 °FDrizzle. Fog.12 mph100%29.71 "Hg1 mi
3:30 AM52 °FDrizzle. Fog.13 mph100%29.74 "Hg3 mi
3:00 AM52 °FPassing clouds.15 mph100%29.74 "Hg4 mi
2:30 AM54 °FSprinkles. Passing clouds.16 mph88%29.74 "HgN/A
2:00 AM54 °FSprinkles. Passing clouds.16 mph88%29.74 "HgN/A
1:30 AM54 °FSprinkles. Passing clouds.16 mph88%29.74 "HgN/A
1:00 AM54 °FSprinkles. Passing clouds.15 mph88%29.74 "HgN/A
Weather by CustomWeather, © 2016

See weather overviewHow to use our weather pages